Weather History for Logansport, IN

Change the Weather History Date:

Saturday, November 9, 2013

  Actual Average Record
Temperature  
Mean Temperature 49 °F -  
Max Temperature 59 °F 45 °F 59 °F (2013)
Min Temperature 39 °F 29 °F 39 °F (2013)
Degree Days  
Heating Degree Days 16    
Moisture  
Dew Point 34 °F    
Average Humidity 58    
Maximum Humidity 75    
Minimum Humidity 42    
Precipitation  
Precipitation 0.00 in - - ()
Sea Level Pressure  
Sea Level Pressure 30.02 in    
Wind  
Wind Speed 15 mph (SW)    
Max Wind Speed 28 mph    
Max Gust Speed 36 mph    
Visibility 10 miles    
Events      
Averages and records for this station are not official NWS values.
T = Trace of Precipitation, MM = Missing Value Source: NWS Daily Summary

Daily Weather History Graph

Daily Weather History Graph

Search for Another Location

Airport:

Trip Planner

Search our weather history database for the weather conditions in past years. The results will help you decide how hot, cold, wet, or windy it might be!

Date:

Astronomy

Nov. 09, 2013 Rise Set
Actual Time 7:25 AM EST 5:32 PM EST
Civil Twilight 6:56 AM EST 6:01 PM EST
Nautical Twilight 6:23 AM EST 6:34 PM EST
Astronomical Twilight 5:51 AM EST 7:06 PM EST
Moon 1:01 PM EST (11/9) No Moon Set
Length of Visible Light 11h 05m
Length of Day
10h 07m
Waxing Crescent, 44% of the Moon is Illuminated
Nov 9
Waxing Crescent
Nov 10
First Quarter
Nov 17
Full
Nov 25
Last Quarter
Dec 2
New

Hourly Weather History & Observations

Time (EST) Temp. Windchill Dew Point Humidity Pressure Visibility Wind Dir Wind Speed Gust Speed Precip Events Conditions
12:15 AM 41.0 °F 34.3 °F 30.2 °F 65% 30.12 in 10.0 mi South 11.5 mph - N/A   Mostly Cloudy
12:35 AM 41.0 °F 35.2 °F 30.2 °F 65% 30.12 in 10.0 mi South 9.2 mph - N/A   Overcast
12:55 AM 42.8 °F 36.6 °F 30.2 °F 61% 30.11 in 10.0 mi South 11.5 mph - N/A   Overcast
1:15 AM 42.8 °F 35.8 °F 30.2 °F 61% 30.10 in 10.0 mi South 13.8 mph 19.6 mph N/A   Overcast
1:35 AM 42.8 °F 35.8 °F 30.2 °F 61% 30.09 in 10.0 mi South 13.8 mph - N/A   Overcast
1:55 AM 42.8 °F 35.8 °F 30.2 °F 61% 30.08 in 10.0 mi South 13.8 mph - N/A   Overcast
2:15 AM 42.8 °F 36.6 °F 30.2 °F 61% 30.08 in 10.0 mi South 11.5 mph - N/A   Overcast
2:35 AM 42.8 °F 35.8 °F 30.2 °F 61% 30.08 in 10.0 mi South 13.8 mph - N/A   Overcast
2:55 AM 42.8 °F 35.4 °F 30.2 °F 61% 30.07 in 10.0 mi South 15.0 mph - N/A   Overcast
3:15 AM 42.8 °F 35.8 °F 30.2 °F 61% 30.07 in 10.0 mi SSW 13.8 mph 20.7 mph N/A   Overcast
3:35 AM 42.8 °F 34.8 °F 28.4 °F 57% 30.05 in 10.0 mi SSW 17.3 mph 21.9 mph N/A   Overcast
3:55 AM 42.8 °F 35.1 °F 28.4 °F 57% 30.04 in 10.0 mi SSW 16.1 mph 23.0 mph N/A   Scattered Clouds
4:15 AM 42.8 °F 34.5 °F 28.4 °F 57% 30.03 in 10.0 mi SSW 18.4 mph 21.9 mph N/A   Clear
4:35 AM 41.0 °F 32.2 °F 28.4 °F 61% 30.03 in 10.0 mi SSW 18.4 mph - N/A   Clear
4:55 AM 41.0 °F 32.5 °F 28.4 °F 61% 30.02 in 10.0 mi South 17.3 mph - N/A   Clear
5:15 AM 41.0 °F 32.5 °F 28.4 °F 61% 30.03 in 10.0 mi SSW 17.3 mph 21.9 mph N/A   Clear
5:35 AM 41.0 °F 33.1 °F 28.4 °F 61% 30.02 in 10.0 mi SSW 15.0 mph - N/A   Clear
5:55 AM 39.2 °F 30.8 °F 30.2 °F 70% 30.02 in 10.0 mi SSW 15.0 mph - N/A   Clear
6:15 AM 39.2 °F 30.8 °F 30.2 °F 70% 30.01 in 10.0 mi SSW 15.0 mph - N/A   Clear
6:35 AM 39.2 °F 31.6 °F 30.2 °F 70% 30.01 in 10.0 mi SSW 12.7 mph - N/A   Clear
6:55 AM 39.2 °F 31.2 °F 30.2 °F 70% 30.01 in 10.0 mi SSW 13.8 mph - N/A   Clear
7:15 AM 39.2 °F 31.6 °F 32.0 °F 75% 30.01 in 10.0 mi SSW 12.7 mph - N/A   Clear
7:35 AM 41.0 °F 33.9 °F 32.0 °F 70% 30.01 in 10.0 mi SSW 12.7 mph - N/A   Clear
7:55 AM 42.8 °F 35.4 °F 32.0 °F 66% 30.01 in 10.0 mi SSW 15.0 mph - N/A   Clear
8:15 AM 42.8 °F 35.4 °F 32.0 °F 66% 30.01 in 10.0 mi SSW 15.0 mph 21.9 mph N/A   Clear
8:35 AM 44.6 °F 36.9 °F 32.0 °F 61% 30.01 in 10.0 mi SW 18.4 mph 23.0 mph N/A   Clear
8:55 AM 44.6 °F 38.4 °F 32.0 °F 61% 30.01 in 10.0 mi SW 12.7 mph - N/A   Clear
9:15 AM 46.4 °F 39.2 °F 33.8 °F 62% 30.01 in 10.0 mi SW 18.4 mph 25.3 mph N/A   Clear
9:35 AM 48.2 °F - 35.6 °F 62% 30.01 in 10.0 mi SW 19.6 mph 26.5 mph N/A   Clear
9:55 AM 50.0 °F - 35.6 °F 58% 30.01 in 10.0 mi SW 19.6 mph 25.3 mph N/A   Clear
10:15 AM 50.0 °F - 35.6 °F 58% 29.99 in 10.0 mi WSW 21.9 mph 28.8 mph N/A   Clear
10:35 AM 50.0 °F - 35.6 °F 58% 29.99 in 10.0 mi SW 19.6 mph 26.5 mph N/A   Clear
10:55 AM 51.8 °F - 35.6 °F 54% 29.99 in 10.0 mi WSW 20.7 mph 28.8 mph N/A   Clear
11:15 AM 53.6 °F - 37.4 °F 54% 29.99 in 10.0 mi SW 19.6 mph 26.5 mph N/A   Clear
11:35 AM 53.6 °F - 37.4 °F 54% 29.99 in 10.0 mi WSW 20.7 mph 28.8 mph N/A   Clear
11:55 AM 55.4 °F - 37.4 °F 51% 29.98 in 10.0 mi SW 17.3 mph 27.6 mph N/A   Clear
12:15 PM 55.4 °F - 37.4 °F 51% 29.97 in 10.0 mi WSW 26.5 mph 32.2 mph N/A   Clear
12:35 PM 57.2 °F - 39.2 °F 51% 29.96 in 10.0 mi SW 19.6 mph 26.5 mph N/A   Clear
12:55 PM 57.2 °F - 39.2 °F 51% 29.96 in 10.0 mi SW 17.3 mph 25.3 mph N/A   Clear
1:15 PM 59.0 °F - 39.2 °F 48% 29.95 in 10.0 mi SW 23.0 mph 27.6 mph N/A   Clear
1:35 PM 59.0 °F - 37.4 °F 45% 29.96 in 10.0 mi WSW 18.4 mph 27.6 mph N/A   Clear
1:55 PM 59.0 °F - 35.6 °F 42% 29.95 in 10.0 mi WSW 24.2 mph 34.5 mph N/A   Clear
2:15 PM 59.0 °F - 35.6 °F 42% 29.95 in 10.0 mi WSW 23.0 mph 34.5 mph N/A   Clear
2:35 PM 59.0 °F - 35.6 °F 42% 29.95 in 10.0 mi WSW 27.6 mph 35.7 mph N/A   Clear
2:55 PM 59.0 °F - 35.6 °F 42% 29.95 in 10.0 mi WSW 25.3 mph 33.4 mph N/A   Clear
3:15 PM 59.0 °F - 35.6 °F 42% 29.95 in 10.0 mi WSW 26.5 mph 35.7 mph N/A   Clear
3:35 PM 59.0 °F - 37.4 °F 45% 29.95 in 10.0 mi WSW 20.7 mph 32.2 mph N/A   Clear
3:55 PM 59.0 °F - 37.4 °F 45% 29.96 in 10.0 mi WSW 23.0 mph 34.5 mph N/A   Clear
4:15 PM 59.0 °F - 37.4 °F 45% 29.96 in 10.0 mi WSW 21.9 mph 33.4 mph N/A   Clear
4:35 PM 57.2 °F - 37.4 °F 48% 29.96 in 10.0 mi WSW 19.6 mph 32.2 mph N/A   Clear
4:55 PM 57.2 °F - 37.4 °F 48% 29.96 in 10.0 mi WSW 19.6 mph 24.2 mph N/A   Scattered Clouds
5:15 PM 55.4 °F - 35.6 °F 47% 29.97 in 10.0 mi West 18.4 mph 25.3 mph N/A   Scattered Clouds
5:35 PM 55.4 °F - 33.8 °F 44% 29.98 in 10.0 mi West 18.4 mph 32.2 mph N/A   Clear
5:55 PM 53.6 °F - 33.8 °F 47% 29.99 in 10.0 mi West 12.7 mph 21.9 mph N/A   Clear
6:15 PM 53.6 °F - 35.6 °F 51% 30.01 in 10.0 mi West 11.5 mph - N/A   Clear
6:35 PM 51.8 °F - 35.6 °F 54% 30.01 in 10.0 mi West 12.7 mph 20.7 mph N/A   Clear
6:55 PM 51.8 °F - 35.6 °F 54% 30.02 in 10.0 mi West 10.4 mph - N/A   Clear
7:15 PM 48.2 °F - 35.6 °F 62% 30.03 in 10.0 mi West 10.4 mph - N/A   Clear
7:35 PM 46.4 °F 41.5 °F 35.6 °F 66% 30.03 in 10.0 mi West 10.4 mph - N/A   Clear
7:55 PM 50.0 °F - 35.6 °F 58% 30.03 in 10.0 mi West 11.5 mph - N/A   Clear
8:15 PM 46.4 °F 41.5 °F 35.6 °F 66% 30.04 in 10.0 mi West 10.4 mph - N/A   Clear
8:35 PM 48.2 °F - 35.6 °F 62% 30.04 in 10.0 mi West 10.4 mph 18.4 mph N/A   Clear
9:35 PM 48.2 °F - 35.6 °F 62% 30.06 in 10.0 mi West 12.7 mph 18.4 mph N/A   Clear
9:55 PM 46.4 °F 41.5 °F 35.6 °F 66% 30.06 in 10.0 mi West 10.4 mph 16.1 mph N/A   Clear
10:15 PM 44.6 °F 39.7 °F 35.6 °F 71% 30.07 in 10.0 mi West 9.2 mph - N/A   Clear
10:35 PM 46.4 °F 40.7 °F 35.6 °F 66% 30.08 in 10.0 mi West 12.7 mph 20.7 mph N/A   Clear
10:55 PM 46.4 °F 41.1 °F 33.8 °F 62% 30.08 in 10.0 mi WNW 11.5 mph 20.7 mph N/A   Clear
11:15 PM 46.4 °F 40.7 °F 33.8 °F 62% 30.08 in 10.0 mi West 12.7 mph 18.4 mph N/A   Clear
11:35 PM 46.4 °F 41.5 °F 33.8 °F 62% 30.08 in 10.0 mi West 10.4 mph 19.6 mph N/A   Clear
11:55 PM 44.6 °F 39.7 °F 33.8 °F 66% 30.08 in 10.0 mi West 9.2 mph 16.1 mph N/A   Clear